User: anonymous   Login
Location: Mascot Post Office (historical)
(40.2645°N, 99.5462°W)
Time: 19:07:44
(UTC+00:00)
Language:

Cosmos 2221 Rocket - Orbit

View from above orbital plane
View from above orbital plane
View from above satellite
View from above satellite

Ground track
Ground track

The orbit data is extracted from the following two-line orbital elements,

1 22237U 92080B   20263.54836808 +.00000051 +00000-0 +39042-5 0  9999
2 22237 082.5090 090.3375 0018184 273.2306 086.6825 14.78417154499227
Epoch (UTC): 19 September 2020 13:09:39
Eccentricity: 0.0018184
inclination: 82.5090°
perigee height: 621 km
apogee height: 647 km
right ascension of ascending node: 90.3375°
argument of perigee: 273.2306°
revolutions per day: 14.78417154
mean anomaly at epoch: 86.6825°
orbit number at epoch: 49922

The dashed part of the orbit path shows where the satellite is in the earth's shadow,  

DLR